Location: Newark
(40.3500°N, 15.2333°E)
Time: 03:29:10
(UTC+00:00)

Altair - Pass Details

Date: 24 January 2020
Orbit: 1502 x 1682 km, 47.2° (Epoch: 18 February)

Event Time Altitude Azimuth Distance (km) Brightness Sun altitude
Rises 08:11:40 0° 241° (WSW) 4,873 10.0 17.2°
Reaches altitude 10° 08:14:46 10° 241° (WSW) 3,904 9.5 17.6°
Maximum altitude 08:24:54 88° 331° (NNW) 1,685 8.1 18.9°
Drops below altitude 10° 08:35:08 10° 63° (ENE) 3,940 9.9 20.2°
Sets 08:38:17 0° 64° (ENE) 4,919 10.3 20.6°
